Paris Le Bourget, France

6:35 PM CET on November 23, 2017 (GMT +0100)
Le Bourget

Weather History for LFPB - November, 2012

Change the Weather History Date:

Thursday, November 29, 2012

  Actual Average Record
Temperature  
Mean Temperature 40 °F -  
Max Temperature 44 °F 43 °F 60 °F (2000)
Min Temperature 35 °F 36 °F 21 °F (2010)
Degree Days  
Heating Degree Days 26    
Moisture  
Dew Point 37 °F    
Average Humidity 84    
Maximum Humidity 93    
Minimum Humidity 76    
Precipitation  
Precipitation 0.00 in 0.07 in - ()
Sea Level Pressure  
Sea Level Pressure 29.77 in    
Wind  
Wind Speed 10 mph ()    
Max Wind Speed 15 mph    
Max Gust Speed -    
Visibility 6.2 miles    
Events Rain    
Averages and records for this station are not official NWS values.
T = Trace of Precipitation, MM = Missing Value Source: Averaged Metar Reports

Daily Weather History Graph

Daily Weather History Graph

Search for Another Location

Airport or City:

Trip Planner

Search our weather history database for the weather conditions in past years. The results will help you decide how hot, cold, wet, or windy it might be!

Date:

Astronomy

Nov. 29, 2012 Rise Set
Actual Time 8:20 AM CET 4:56 PM CET
Civil Twilight 7:44 AM CET 5:32 PM CET
Nautical Twilight 7:04 AM CET 6:12 PM CET
Astronomical Twilight 6:26 AM CET 6:50 PM CET
Moon 5:46 PM CET (11/29) 8:55 AM CET (11/29)
Length of Visible Light 9h 48m
Length of Day
8h 35m
Full, 99% of the Moon is Illuminated
Nov 29
Full
Dec 6
Last Quarter
Dec 13
New
Dec 20
First Quarter
Dec 28
Full

Hourly Weather History & Observations

Time (CET) Temp. Windchill Dew Point Humidity Pressure Visibility Wind Dir Wind Speed Gust Speed Precip Events Conditions
12:00 AM 42.8 °F 35.8 °F 41.0 °F 93% 29.74 in 6.2 mi NNW 13.8 mph - N/A   Mostly Cloudy
12:30 AM 42.8 °F 36.2 °F 41.0 °F 93% 29.74 in 6.2 mi NNW 12.7 mph - N/A   Mostly Cloudy
1:00 AM 42.8 °F 35.4 °F 41.0 °F 93% 29.74 in 6.2 mi NNW 15.0 mph - N/A   Mostly Cloudy
1:30 AM 42.8 °F 36.2 °F 41.0 °F 93% 29.74 in 6.2 mi NNW 12.7 mph - N/A   Overcast
2:00 AM 42.8 °F 36.6 °F 39.2 °F 87% 29.74 in 6.2 mi NNW 11.5 mph - N/A   Overcast
2:30 AM 42.8 °F 36.2 °F 39.2 °F 87% 29.74 in 6.2 mi NNW 12.7 mph - N/A   Overcast
3:00 AM 42.8 °F 36.2 °F 39.2 °F 87% 29.74 in 6.2 mi NNW 12.7 mph - N/A   Mostly Cloudy
3:30 AM 42.8 °F 36.2 °F 39.2 °F 87% 29.74 in 6.2 mi North 12.7 mph - N/A   Overcast
4:00 AM 42.8 °F 35.4 °F 39.2 °F 87% 29.74 in 6.2 mi NNW 15.0 mph - N/A   Overcast
4:30 AM 42.8 °F 36.2 °F 37.4 °F 81% 29.74 in 6.2 mi NNW 12.7 mph - N/A   Mostly Cloudy
5:00 AM 42.8 °F 36.6 °F 37.4 °F 81% 29.74 in 6.2 mi NNW 11.5 mph - N/A   Mostly Cloudy
5:30 AM 41.0 °F 34.3 °F 37.4 °F 87% 29.74 in 6.2 mi NNW 11.5 mph - N/A   Mostly Cloudy
6:00 AM 41.0 °F 34.7 °F 37.4 °F 87% 29.74 in 6.2 mi NNW 10.4 mph - N/A   Mostly Cloudy
6:30 AM 41.0 °F 33.9 °F 37.4 °F 87% 29.77 in 6.2 mi NNW 12.7 mph - N/A   Mostly Cloudy
7:00 AM 42.8 °F 36.6 °F 37.4 °F 81% 29.77 in 6.2 mi NNW 11.5 mph - N/A   Mostly Cloudy
7:30 AM 41.0 °F 34.3 °F 37.4 °F 87% 29.77 in 6.2 mi NNW 11.5 mph - N/A Rain Light Rain
8:00 AM 41.0 °F 34.7 °F 37.4 °F 87% 29.77 in 6.2 mi NNW 10.4 mph - N/A   Mostly Cloudy
8:30 AM 41.0 °F 34.3 °F 37.4 °F 87% 29.77 in 6.2 mi NNW 11.5 mph - N/A   Overcast
9:00 AM 41.0 °F 35.2 °F 35.6 °F 81% 29.80 in 6.2 mi NNW 9.2 mph - N/A   Mostly Cloudy
9:30 AM 41.0 °F 34.7 °F 37.4 °F 87% 29.80 in 6.2 mi NNW 10.4 mph - N/A Rain Light Rain
10:00 AM 41.0 °F 34.7 °F 37.4 °F 87% 29.80 in 6.2 mi NNW 10.4 mph - N/A   Mostly Cloudy
10:30 AM 41.0 °F 33.5 °F 37.4 °F 87% 29.80 in 6.2 mi NNW 13.8 mph - N/A Rain Light Rain
11:00 AM 42.8 °F 36.2 °F 37.4 °F 81% 29.80 in 6.2 mi NNW 12.7 mph - N/A   Overcast
11:30 AM 42.8 °F 37.0 °F 37.4 °F 81% 29.80 in 6.2 mi NNW 10.4 mph - N/A   Mostly Cloudy
12:00 PM 42.8 °F 36.6 °F 37.4 °F 81% 29.80 in 6.2 mi NNW 11.5 mph - N/A   Mostly Cloudy
12:30 PM 44.6 °F 38.8 °F 39.2 °F 81% 29.80 in 6.2 mi NW 11.5 mph - N/A   Overcast
1:00 PM 44.6 °F 38.8 °F 37.4 °F 76% 29.80 in 6.2 mi NNW 11.5 mph - N/A   Mostly Cloudy
1:30 PM 44.6 °F 39.7 °F 37.4 °F 76% 29.77 in 6.2 mi NNW 9.2 mph - N/A   Overcast
2:00 PM 44.6 °F 38.4 °F 37.4 °F 76% 29.77 in 6.2 mi NNW 12.7 mph - N/A   Overcast
2:30 PM 44.6 °F 38.4 °F 37.4 °F 76% 29.77 in 6.2 mi NNW 12.7 mph - N/A   Mostly Cloudy
3:00 PM 44.6 °F 39.2 °F 37.4 °F 76% 29.77 in 6.2 mi NNW 10.4 mph - N/A   Scattered Clouds
3:30 PM 44.6 °F 39.2 °F 37.4 °F 76% 29.77 in 6.2 mi NNW 10.4 mph - N/A   Scattered Clouds
4:00 PM 44.6 °F 39.2 °F 37.4 °F 76% 29.77 in 6.2 mi NNW 10.4 mph - N/A   Overcast
4:30 PM 42.8 °F 37.0 °F 37.4 °F 81% 29.77 in 6.2 mi NNW 10.4 mph - N/A   Partly Cloudy
5:00 PM 42.8 °F 38.0 °F 37.4 °F 81% 29.77 in 6.2 mi NNW 8.1 mph - N/A   Mostly Cloudy
5:30 PM 42.8 °F 38.0 °F 35.6 °F 76% 29.77 in 6.2 mi NNW 8.1 mph - N/A   Mostly Cloudy
6:00 PM 42.8 °F 39.3 °F 37.4 °F 81% 29.77 in 6.2 mi NNW 5.8 mph - N/A   Overcast
6:30 PM 41.0 °F 36.4 °F 35.6 °F 81% 29.77 in 6.2 mi NNW 6.9 mph - N/A   Mostly Cloudy
7:00 PM 41.0 °F 37.1 °F 35.6 °F 81% 29.80 in 6.2 mi NNW 5.8 mph - N/A   Partly Cloudy
7:30 PM 41.0 °F 38.0 °F 35.6 °F 81% 29.80 in 6.2 mi NNW 4.6 mph - N/A   Unknown
8:00 PM 39.2 °F 37.0 °F 35.6 °F 87% 29.80 in 6.2 mi NNW 3.5 mph - N/A   Unknown
8:30 PM 39.2 °F - 35.6 °F 87% 29.80 in 6.2 mi Variable 2.3 mph - N/A   Unknown
9:00 PM 37.4 °F - 33.8 °F 87% 29.80 in 6.2 mi Calm Calm - N/A   Unknown
9:30 PM 37.4 °F - 35.6 °F 93% 29.80 in 6.2 mi Variable 2.3 mph - N/A   Unknown
10:00 PM 37.4 °F - 33.8 °F 87% 29.80 in 6.2 mi Variable 1.2 mph - N/A   Unknown
10:30 PM 35.6 °F - 32.0 °F 87% 29.80 in 6.2 mi Variable 2.3 mph - N/A   Partly Cloudy
11:00 PM 35.6 °F - 33.8 °F 93% 29.80 in 6.2 mi Variable 2.3 mph - N/A   Unknown
11:30 PM 35.6 °F - 33.8 °F 93% 29.80 in 6.2 mi WNW 1.2 mph - N/A   Unknown